ZL2VAX Weather Reports


Display with metric or nautical units.
time (UTC)temp
F
wind
direction
speed
MPH
gust
MPH
rain 1hr
in
rain 24hr
in
rain mn
in
humidity
%
barometer
mb
20260509054534 58 245 10.0 20.0 0.02 0.21 0.20 88 1000.4
20260509053531 58 242 13.0 23.0 0.02 0.21 0.20 88 1000.4
20260509052548 58 280 12.0 22.0 0.02 0.21 0.20 89 1000.5
20260509051525 58 276 10.0 17.0 0.00 0.19 0.18 87 1000.3
20260509050524 58 265 9.0 17.0 0.00 0.19 0.18 87 1000.3
20260509045520 58 270 11.0 18.0 0.06 0.19 0.18 87 1000.5
20260509044517 58 278 12.0 23.0 0.07 0.19 0.18 87 1000.2
20260509043615 58 267 12.0 24.0 0.07 0.19 0.18 87 1000.1
20260509042613 58 266 9.0 16.0 0.07 0.19 0.18 88 999.9
20260509041611 58 277 11.0 22.0 0.07 0.19 0.18 89 999.8
20260509040607 57 254 13.0 22.0 0.07 0.19 0.18 90 999.9
20260509035606 59 236 18.0 29.0 0.01 0.13 0.12 86 1000.2
20260509034602 60 270 11.0 16.0 0.00 0.12 0.11 84 1000.1
20260509033559 60 268 12.0 22.0 0.00 0.12 0.11 83 1000.3
20260509032557 60 270 11.0 25.0 0.00 0.12 0.11 84 1000.3
20260509031554 60 269 9.0 16.0 0.00 0.12 0.11 84 1000.2
20260509030552 61 266 11.0 22.0 0.00 0.12 0.11 83 999.8
20260509025550 61 278 12.0 20.0 0.00 0.12 0.11 82 999.8
20260509024607 60 260 15.0 30.0 0.00 0.12 0.11 82 999.6
20260509023544 60 286 9.0 16.0 0.00 0.12 0.11 86 999.7
20260509022541 60 266 14.0 32.0 0.00 0.12 0.11 85 999.4
20260509021544 61 270 18.0 29.0 0.00 0.12 0.11 81 999.3
20260509020541 61 266 20.0 31.0 0.00 0.12 0.11 82 999.1
20260509015533 61 267 19.0 32.0 0.00 0.12 0.11 81 999.1
20260509014551 61 297 18.0 29.0 0.01 0.12 0.11 82 999.1
20260509013533 61 282 18.0 27.0 0.01 0.12 0.11 85 999.2
20260509012526 60 273 17.0 25.0 0.01 0.12 0.11 86 999.8
20260509011523 60 287 13.0 25.0 0.01 0.12 0.11 86 1000.4
20260509010522 59 273 12.0 22.0 0.01 0.12 0.11 88 1000.8
20260509005519 59 275 10.0 21.0 0.02 0.12 0.11 87 1001.0
20260509004515 59 290 14.0 24.0 0.01 0.11 0.09 88 1001.2
20260509003618 59 284 11.0 22.0 0.01 0.11 0.09 89 1001.6
20260509002611 58 263 7.0 16.0 0.01 0.11 0.09 89 1002.0
20260509001608 58 277 11.0 21.0 0.01 0.11 0.09 88 1002.1
20260509000605 61 284 11.0 20.0 0.01 0.11 0.09 80 1001.6
20260508235603 61 281 7.0 16.0 0.00 0.09 0.08 78 1001.4
20260508234601 61 281 8.0 14.0 0.00 0.09 0.08 76 1001.5
20260508233558 61 282 7.0 13.0 0.00 0.09 0.08 76 1001.5
20260508232556 62 282 9.0 18.0 0.00 0.09 0.08 74 1001.5
20260508231553 62 282 11.0 20.0 0.00 0.09 0.08 74 1001.5
20260508230551 62 288 11.0 18.0 0.00 0.09 0.08 74 1001.5
20260508225552 63 282 10.0 18.0 0.00 0.09 0.08 74 1001.8
20260508224545 63 284 8.0 13.0 0.00 0.09 0.08 74 1002.0
20260508223543 64 269 10.0 16.0 0.00 0.09 0.08 74 1001.8
20260508222601 63 294 8.0 15.0 0.00 0.09 0.08 74 1001.9
20260508221537 63 292 8.0 15.0 0.00 0.09 0.08 74 1001.8
20260508220535 63 282 6.0 11.0 0.00 0.09 0.08 75 1001.9
20260508215532 62 275 11.0 20.0 0.00 0.09 0.08 76 1001.8
20260508214531 62 275 7.0 16.0 0.00 0.09 0.08 77 1001.9
20260508213527 62 284 9.0 21.0 0.00 0.09 0.08 77 1001.6
20260508212525 61 278 8.0 20.0 0.00 0.09 0.08 79 1001.8
20260508211523 61 281 7.0 14.0 0.00 0.09 0.08 81 1001.9
20260508210520 60 287 7.0 17.0 0.01 0.09 0.08 82 1002.1
20260508205620 60 336 3.0 7.0 0.01 0.09 0.08 84 1001.9
20260508204614 59 289 6.0 11.0 0.01 0.09 0.08 83 1001.9
20260508203612 59 277 11.0 16.0 0.01 0.09 0.08 83 1002.0
20260508202611 58 273 9.0 17.0 0.01 0.09 0.08 85 1002.2
20260508201607 58 286 13.0 21.0 0.02 0.09 0.08 86 1002.0
20260508200604 58 277 11.0 17.0 0.01 0.08 0.07 86 1002.1
20260508195602 58 295 4.0 14.0 0.01 0.08 0.07 86 1002.2
20260508194600 58 297 3.0 11.0 0.01 0.08 0.07 86 1001.9
20260508193556 58 285 5.0 9.0 0.01 0.08 0.07 86 1001.8
20260508192614 58 297 7.0 11.0 0.01 0.08 0.07 87 1001.8
20260508191612 58 284 9.0 14.0 0.00 0.07 0.06 87 1001.9
20260508190609 58 280 14.0 23.0 0.00 0.07 0.06 85 1002.0
20260508185547 59 289 13.0 21.0 0.00 0.07 0.06 80 1002.0
20260508184543 60 293 10.0 21.0 0.00 0.07 0.06 81 1002.1
20260508183601 60 288 10.0 16.0 0.00 0.07 0.06 81 1002.0
20260508182559 59 286 9.0 15.0 0.00 0.07 0.06 81 1002.0
20260508181536 59 289 10.0 17.0 0.00 0.07 0.06 81 1001.9
20260508180533 59 300 10.0 15.0 0.00 0.07 0.06 82 1002.1
20260508175531 59 285 10.0 17.0 0.00 0.07 0.06 83 1002.3
20260508174528 59 283 8.0 15.0 0.00 0.07 0.06 82 1002.3
20260508173525 59 275 6.0 11.0 0.00 0.07 0.06 83 1002.2
20260508172523 59 285 3.0 7.0 0.00 0.07 0.06 83 1002.2
20260508171520 59 280 6.0 9.0 0.00 0.07 0.06 82 1002.3
20260508170518 59 280 7.0 11.0 0.00 0.07 0.06 81 1002.2
20260508165615 58 273 6.0 14.0 0.00 0.07 0.06 83 1002.1
20260508164614 59 297 7.0 11.0 0.00 0.07 0.06 82 1002.1
20260508163610 59 281 6.0 11.0 0.00 0.07 0.06 82 1002.0
20260508162607 59 284 9.0 16.0 0.00 0.07 0.06 81 1002.1
20260508161605 59 289 8.0 15.0 0.00 0.07 0.06 81 1002.2
20260508160603 60 273 9.0 13.0 0.00 0.07 0.06 80 1002.1
20260508155559 59 281 8.0 13.0 0.00 0.07 0.06 81 1002.1
20260508154557 60 258 7.0 9.0 0.00 0.07 0.06 82 1002.2
20260508153559 59 277 7.0 14.0 0.00 0.07 0.06 82 1002.4
20260508152552 59 269 5.0 11.0 0.00 0.07 0.06 84 1002.8
20260508151550 59 267 5.0 8.0 0.00 0.07 0.06 84 1003.0
20260508150547 59 282 3.0 6.0 0.00 0.07 0.06 84 1003.3
20260508145544 59 279 6.0 11.0 0.00 0.07 0.06 84 1003.3
20260508144624 59 270 5.0 11.0 0.00 0.07 0.06 84 1003.4
20260508143541 59 259 7.0 14.0 0.00 0.07 0.06 85 1003.3
20260508142536 59 260 6.0 13.0 0.00 0.07 0.06 84 1003.4
20260508141534 59 266 7.0 11.0 0.00 0.07 0.06 84 1003.3
20260508140531 59 266 6.0 9.0 0.00 0.07 0.06 85 1003.3
20260508135529 59 255 10.0 22.0 0.02 0.07 0.06 84 1003.2
20260508134526 60 277 8.0 14.0 0.02 0.07 0.06 84 1003.2
20260508133523 59 248 6.0 11.0 0.02 0.07 0.06 86 1003.2
20260508132541 60 262 6.0 14.0 0.04 0.07 0.06 85 1003.3
20260508131519 59 262 9.0 17.0 0.04 0.07 0.06 85 1003.4
20260508130516 59 279 4.0 9.0 0.06 0.07 0.06 91 1003.4
20260508125638 59 243 4.0 15.0 0.04 0.05 0.04 92 1003.6
20260508124611 58 246 8.0 16.0 0.04 0.05 0.04 92 1003.4
20260508123608 58 245 8.0 17.0 0.04 0.05 0.04 92 1003.5
20260508122606 58 258 11.0 20.0 0.02 0.04 0.02 92 1003.5
20260508121643 59 249 13.0 25.0 0.02 0.04 0.02 91 1003.4
20260508120601 61 225 6.0 15.0 0.00 0.01 0.00 91 1003.2
20260508115558 63 250 6.0 16.0 0.00 0.01 0.01 84 1003.0
20260508114555 62 301 1.0 4.0 0.00 0.01 0.01 86 1002.6
20260508113551 62 12 1.0 2.0 0.00 0.01 0.01 85 1002.5
20260508112610 63 342 2.0 6.0 0.00 0.01 0.01 84 1002.5
20260508111547 63 20 2.0 4.0 0.00 0.01 0.01 84 1002.7
20260508110546 63 292 3.0 7.0 0.00 0.01 0.01 82 1003.1
20260508105541 63 281 5.0 9.0 0.00 0.01 0.01 81 1003.1
20260508104539 61 289 3.0 8.0 0.00 0.01 0.01 88 1003.4
20260508103538 60 253 1.0 2.0 0.00 0.01 0.01 91 1003.2
20260508102534 60 0.0 0.0 0.00 0.01 0.01 90 1003.4
20260508101532 59 338 1.0 4.0 0.00 0.01 0.01 92 1003.5
20260508100550 59 293 1.0 4.0 0.00 0.01 0.01 92 1003.8
20260508095526 59 293 0.0 2.0 0.00 0.01 0.01 91 1003.8
20260508094524 59 0.0 2.0 0.01 0.01 0.01 90 1003.9
20260508093521 59 321 1.0 4.0 0.01 0.01 0.01 90 1003.8
20260508092518 59 355 1.0 4.0 0.01 0.01 0.01 89 1004.0
20260508091637 59 270 0.0 2.0 0.01 0.01 0.01 90 1004.6
20260508090612 58 0.0 0.0 0.01 0.01 0.01 90 1004.1
20260508085611 58 270 1.0 2.0 0.01 0.01 0.01 90 1004.0
20260508084608 59 270 1.0 4.0 0.00 0.00 0.00 90 1003.8
20260508083605 59 0.0 0.0 0.00 0.00 0.00 89 1003.9
20260508082602 59 270 0.0 2.0 0.00 0.00 0.00 88 1004.2
20260508081600 60 270 0.0 2.0 0.00 0.00 0.00 85 1004.1
20260508080639 60 0.0 2.0 0.00 0.00 0.00 85 1004.6
20260508075555 60 270 1.0 2.0 0.00 0.00 0.00 84 1004.9
20260508074613 59 270 0.0 2.0 0.00 0.00 0.00 87 1004.9
20260508073551 60 270 0.0 2.0 0.00 0.00 0.00 86 1005.3
20260508072607 61 270 1.0 2.0 0.00 0.00 0.00 83 1005.5
20260508071545 61 270 1.0 2.0 0.00 0.00 0.00 79 1005.4
20260508070542 62 0 1.0 2.0 0.00 0.00 0.00 77 1005.2
20260508065541 63 0 1.0 2.0 0.00 0.00 0.00 74 1005.3
20260508064557 63 300 1.0 2.0 0.00 0.00 0.00 72 1005.4
20260508063534 62 352 1.0 2.0 0.00 0.00 0.00 74 1005.4
20260508062531 62 336 2.0 4.0 0.00 0.00 0.00 74 1005.4
20260508061529 60 298 1.0 2.0 0.00 0.00 0.00 77 1005.7
20260508060526 60 297 1.0 4.0 0.00 0.00 0.00 75 1005.8
20260508055524 62 0 1.0 4.0 0.00 0.00 0.00 71 1006.0